Regional Weather Roundup
Issued by NWS

Home | Current Version | Previous Version | Text Only | Print | Product List | Glossary On
Versions: 1 2 3 4 5 6 7 8 9 10 11 12 13 14 15 16 17 18 19 20 21 22 23 24 25 26 27 28 29 30 31 32 33 34 35 36 37 38 39 40 41 42 43 44 45 46 47 48 49 50
000
ASUS43 KMPX 241110
RWRMN
WEATHER ROUNDUP FOR MINNESOTA
NATIONAL WEATHER SERVICE TWIN CITIES/CHANHASSEN MN
600 AM CDT THU MAY 24 2018


NOTE: "FAIR" INDICATES FEW OR NO CLOUDS BELOW 12,000 FEET WITH NO
SIGNIFICANT WEATHER AND/OR OBSTRUCTIONS TO VISIBILITY. N/A MEANS
CURRENT SKY AND/OR WEATHER CONDITIONS ARE NOT AVAILABLE.

MNZ060>063-068>070-241200-
   Twin Cities Metro

CITY           SKY/WX    TMP DP  RH WIND       PRES   REMARKS
TWIN CITIES    MOCLDY    73  64  73 S8        30.04R
ST PAUL        MOCLDY    69  63  81 SE7       30.04S
CRYSTAL        FAIR      71  62  73 S8        30.02R
BLAINE         FAIR      72  63  73 S8        30.03R
LAKEVILLE      FAIR      66  63  88 S6        30.04S
EDEN PRAIRIE   FAIR      70  62  76 S8        30.02S
SOUTH ST PAUL  MOCLDY    70  63  78 S6        30.04R
LAKE ELMO      FAIR      68  63  83 S6        30.06R
$$
MNZ001>005-007-008-013>017-022>024-027-028-241200-
   Northwest Minnesota

CITY           SKY/WX    TMP DP  RH WIND       PRES   REMARKS
BEMIDJI        FAIR      65  62  90 SE10      29.95S
HALLOCK        FAIR      70  63  78 SE9       29.85S
ROSEAU         RAIN      66  61  82 S7        29.91S
WARROAD        MOCLDY    64  61  88 CALM      29.93R
THIEF RVR FALL FAIR      65  61  87 SE9       29.90S
CROOKSTON      FAIR      66  63  88 S10       29.86F
FOSSTON        FAIR      66  59  77 SE7       29.91F
DETROIT LAKES  FAIR      66  63  88 SE10      29.94R
MOORHEAD       FAIR      70  63  78 SE9       29.87F
PARK RAPIDS    FAIR      66  63  90 SE10      29.96R
MAHNOMEN       FAIR      68  63  82 SE8       29.90S
$$
MNZ006-009>011-018-025>026-241200-
   North Central Minnesota

CITY           SKY/WX    TMP DP  RH WIND       PRES   REMARKS
BAUDETTE       FAIR      63  62  97 SE12      29.93F
FLAG ISLAND    FAIR      66  61  82 E3        29.91F
INTL FALLS     MOCLDY    62  60  93 CALM      29.98F
WASKISH          N/A     63  61  94 NE6       29.97R
BIG FORK       CLOUDY    64  63  94 SE7       30.00F
LONGVILLE      FAIR      64  63  94 SE5       29.99F
GRAND RAPIDS   CLOUDY    64  62  93 S10       30.04R
CRANE LAKE     MOCLDY    55  54  94 CALM      30.03F
ORR            FAIR      61  55  82 CALM      29.99F
COOK           FAIR      59  57  94 CALM      30.03R
WALKER         CLOUDY    66  62  87 SE5       29.97R
$$
MNZ012-019>021-037-241200-
   Northeast Minnesota

CITY           SKY/WX    TMP DP  RH WIND       PRES   REMARKS
DULUTH         LGT RAIN  62  61  96 S13       30.08R FOG
ELY            FAIR      61  57  88 CALM      30.05S
HIBBING        MOCLDY    59  57  93 CALM      30.04R
EVELETH        FAIR      55  55 100 CALM      30.05S
DULUTH HARBOR  RAIN      50  48  93 CALM      30.09S
TWO HARBORS    LGT RAIN  59  54  82 CALM      30.06F
SILVER BAY     FAIR      55  54  94 CALM      30.06S
GRAND MARAIS     N/A     46  40  79 NE6       30.08S
G MARAIS ARPRT FAIR      52  45  76 CALM      30.11S
$$
MNZ029>031-032-039>041-046>048-054>057-064-241200-
   West Central Minnesota

CITY           SKY/WX    TMP DP  RH WIND       PRES   REMARKS
FERGUS FALLS   FAIR      70  63  78 S13       29.87S
WHEATON        CLOUDY    68  61  77 SE14      29.90F
MORRIS         CLOUDY    68  64  88 SE13      29.93S
ALEXANDRIA     MOCLDY    71  64  78 SE12      29.98S
ELBOW LAKE     FAIR      68  64  86 SE15      29.93S
WADENA         FAIR      66  64  94 S8        29.95S
GLENWOOD       FAIR      70  64  83 S16       29.98S
APPLETON       MOCLDY    72  63  73 S9G16     29.93S
BENSON         MOCLDY    70  63  78 S10       29.97S
ORTONVILLE     CLOUDY    66  63  88 SE5       29.92R
MADISON        CLOUDY    73  64  73 S13       29.94R
WILLMAR        FAIR      66  63  88 S7        30.01S
$$
MNZ033>034-036-042>043-049>051-058-059-241200-
   Central Minnesota

CITY           SKY/WX    TMP DP  RH WIND       PRES   REMARKS
ST CLOUD       FAIR      65  62  90 E7        30.02R
SAUK CENTRE    FAIR      67  63  89 E8        29.99S
PAYNESVILLE    FAIR      69  64  85 S9        30.00R
PINE RIVER     FAIR      63  61  94 SE8       30.01F
BRAINERD       LGT RAIN  66  62  87 SE13      30.01F
STAPLES        FAIR      66  61  82 S9G16     29.97S
LONG PRAIRIE   FAIR      66  63  88 E9        30.00S
LITTLE FALLS   FAIR      63  63 100 SE6       30.00F
LITCHFIELD     FAIR      70  64  83 S5        30.01R
BUFFALO        FAIR      70  61  74 S5        30.02S
MAPLE LAKE     FAIR      71  64  77 S6        30.02S
HUTCHINSON     FAIR      70  64  82 S9        30.03R
$$
MNZ037-044-045-052-053-241200-
   East Central Minnesota

CITY           SKY/WX    TMP DP  RH WIND       PRES   REMARKS
PRINCETON      FAIR      64  63  94 N5        30.04R
MORA           MOCLDY    63  61  94 NE5       30.08R
CAMBRIDGE      FAIR      66  61  82 CALM      30.04R
RUSH CITY      MOCLDY    66  63  89 NE3       30.05R
MOOSE LAKE     TSTM      63  61  94 CALM      30.08R
HINCKLEY       CLOUDY    64  61  88 N7        30.08R
CLOQUET        TSTM      59  57  94 SE3       30.08R
MCGREGOR       CLOUDY    64  63  94 SE12      30.05R THUNDER
$$
MNZ071>073-080-081-089-090-097-098-241200-
   Southwest Minnesota

CITY           SKY/WX    TMP DP  RH WIND       PRES   REMARKS
MONTEVIDEO     CLOUDY    70  64  83 S8        29.97R
GRANITE FALLS  CLOUDY    70  64  83 S15       29.98S
CANBY          MOCLDY    74  63  67 S13       29.95S
MARSHALL       CLOUDY    71  64  78 S17       29.97F
REDWOOD FALLS  MOCLDY    69  64  84 S10       29.99S
OLIVIA         CLOUDY    70  64  83 S9        29.99S
PIPESTONE      CLOUDY    70  63  78 SW17      30.01S
WINDOM         CLOUDY    70  52  52 S9        30.02F
WORTHINGTON    MOCLDY    69  63  81 S12       30.04S
JACKSON        CLOUDY    68  63  83 S10       30.06S
TRACY          CLOUDY    70  65  84 S13G18    29.99F
SLAYTON        MOCLDY    70  64  80 S9        30.03S
$$
MNZ065>067-074>077-082>085-091>093-241200-
   South Central Minnesota

CITY           SKY/WX    TMP DP  RH WIND       PRES   REMARKS
MANKATO        FAIR      68  63  84 S9        30.05R
NEW ULM        PTCLDY    68  63  83 S9        30.02S
ST JAMES       PTCLDY    68  63  83 S12       30.04S
FAIRMONT       CLOUDY    66  63  90 S8        30.05S
GLENCOE        FAIR      71  63  75 S5        30.02R
FARIBAULT      FAIR      70  63  78 CALM      30.06S
OWATONNA       FAIR      70  63  78 S13G18    30.07S
WASECA         FAIR      68  61  77 S13       30.07S
ALBERT LEA     FAIR      66  61  82 S7        30.09S
$$
MNZ078>079-086>088-094>096-241200-
   Southeast Minnesota

CITY           SKY/WX    TMP DP  RH WIND       PRES   REMARKS
ROCHESTER      FAIR      64  60  87 S10       30.10F
RED WING       FAIR      68  57  68 E5        30.06S
STANTON        FAIR      69  62  78 S7        30.04S
DODGE CENTER   FAIR      66  61  82 S12       30.09S
WINONA         FAIR      66  59  77 SE3       30.08S
AUSTIN         FAIR      66  61  82 S7        30.10S
PRESTON        FAIR      62  57  83 S8        30.14R
$$
ABBREVIATIONS USED IN REMARKS
   TC - TEMPERATURES IN CELSIUS
  WCI - WIND CHILL INDEX
   HX - HEAT INDEX
  VSB - VISIBILITY
$$




USA.gov is the U.S. government's official web portal to all federal, state and local government web resources and services.